Location: Geelbroek
(52.9503°N, 6.5712°E)
Time: 19:56:36
(UTC+00:00)

Helios 1A - Pass Details

Date: 15 May 2026
Orbit: 540 x 559 km, 98.2° (Epoch: 6 June)

Event Time Altitude Azimuth Distance (km) Brightness Sun altitude
Rises 22:09:58 0° 15° (NNE) 2,719 7.3 -15.9°
Reaches altitude 10° 22:12:06 10° 16° (NNE) 1,820 6.3 -16.1°
Maximum altitude 22:16:02 83° 104° (ESE) 553 2.7 -16.2°
Enters shadow 22:17:55 30° 191° (S) 992 3.6 -16.3°
